Location: 433rd Scouts Home(Lloyd Manor Park, Etobicoke )
(43.6722°N, 79.5542°W)
Time: 06:45:47
(UTC-04:00)

Envisat - Pass Details

Date: 24 September 2021
Orbit: 764 x 766 km, 98.2° (Epoch: 20 October)

Event Time Altitude Azimuth Distance (km) Brightness Sun altitude
Rises 05:35:33 0° 24° (NNE) 3,240 6.9 -17.3°
Reaches altitude 10° 05:38:14 10° 37° (NE) 2,309 6.3 -16.9°
Maximum altitude 05:42:28 26° 94° (E) 1,469 5.3 -16.1°
Drops below altitude 10° 05:46:40 10° 150° (SSE) 2,294 5.7 -15.4°
Sets 05:49:19 0° 163° (SSE) 3,214 6.3 -14.9°
